Theta_e
329 330 329 328 328 328 327 328 330 330 330 330 328 327 327 327 328 328 327 327 327 326 325 324 323 323 323 322 321 321 321 320 320 318 317 316 315 315 315 315 316 317 319 320 320 320 319 319 319 319 319 319 319 320 319 317 315 313 313 314 315 315 316 317 319 319 320 321 321 320 319 317 315 315 316 316 316 316 316 317 318 318 319 319 319
332 333 331 329 329 329 329 329 329 329 329 330 329 328 329 328 328 328 329 329 328 328 327 326 326 325 325 324 323 323 323 322 321 320 319 319 318 317 317 317 318 318 319 319 319 319 319 319 319 319 320 320 320 320 319 318 316 313 312 311 311 312 312 313 313 314 314 315 316 315 315 314 314 315 315 315 316 316 316 317 317 317 317 318 319
331 331 329 329 329 329 329 329 329 328 328 328 328 329 329 329 329 329 329 329 329 328 328 328 327 327 326 326 326 326 325 325 323 322 321 321 321 320 319 319 319 319 320 319 319 319 319 319 320 320 320 319 319 319 318 318 317 315 313 312 311 311 311 311 312 312 312 312 313 313 314 314 315 315 316 316 317 317 317 318 317 317 317 317 318
330 329 329 329 329 329 329 329 329 329 329 329 329 329 329 329 329 330 330 329 329 329 329 328 328 328 328 327 327 327 327 327 326 324 323 323 322 322 321 321 321 321 320 320 320 320 320 320 320 320 319 319 319 319 318 318 318 317 316 314 313 312 312 312 313 313 314 314 314 315 316 317 318 318 318 318 318 319 319 319 319 318 318 317 317
330 330 330 330 330 330 329 329 330 330 330 330 330 329 329 330 330 331 330 328 328 328 328 328 328 328 328 328 328 328 328 328 328 327 326 325 324 323 323 322 322 322 322 322 322 322 322 322 322 321 321 321 320 320 319 319 318 318 318 317 316 316 315 315 315 316 316 316 317 318 318 319 319 320 320 319 320 320 320 320 320 320 320 320 319
329 330 330 330 330 329 328 329 330 329 330 329 329 329 329 329 329 329 328 327 327 327 327 327 328 328 328 328 328 328 328 329 329 328 328 327 326 325 325 325 324 324 324 324 324 324 324 324 324 323 323 323 323 323 322 321 320 319 319 319 318 318 318 318 318 318 318 319 319 319 319 319 319 319 319 320 320 320 321 321 321 321 321 321 320
327 328 328 328 327 327 327 328 329 329 329 329 329 329 330 329 328 327 327 328 328 328 328 328 329 329 329 329 328 328 329 329 329 329 328 328 327 327 327 327 327 326 326 326 326 326 326 325 325 324 324 323 323 323 323 323 323 322 321 321 320 319 319 319 319 319 319 319 320 320 320 320 320 320 320 320 321 321 322 323 323 323 323 322 322
326 326 326 325 325 326 326 327 327 327 327 327 328 328 328 328 328 327 328 328 328 328 328 328 328 328 328 329 328 328 328 328 328 328 328 328 327 328 328 328 328 328 328 328 328 328 327 327 326 326 326 325 325 324 323 323 323 324 323 323 323 322 321 321 320 320 321 321 322 322 323 323 323 323 323 322 322 322 322 322 323 323 323 323 323
324 324 324 325 325 325 326 326 326 326 326 325 325 325 326 327 327 326 327 327 327 327 327 327 327 327 327 327 327 327 326 326 325 326 327 327 328 328 327 328 328 328 329 329 329 328 328 328 328 327 327 326 326 326 325 324 324 324 324 324 324 324 324 323 323 323 323 323 324 324 324 324 324 323 323 323 323 323 323 323 322 322 322 322 322
323 324 324 324 324 324 324 323 323 323 323 323 322 322 322 322 323 323 324 324 324 324 324 324 323 323 322 322 322 321 320 320 320 322 324 325 326 327 326 326 326 326 327 328 328 328 328 328 328 328 328 327 327 327 327 326 326 326 325 326 325 325 325 325 325 324 324 324 324 324 324 324 324 324 323 323 323 323 323 323 322 322 321 321 321
321 322 322 322 322 320 320 319 319 319 319 319 319 318 318 318 318 319 318 317 318 318 318 318 317 317 317 317 317 317 317 317 317 319 320 322 324 325 324 323 324 324 325 326 327 328 328 328 328 328 328 328 328 327 327 326 326 326 326 326 326 325 325 325 324 324 324 324 324 324 323 323 323 323 323 323 323 323 322 322 322 322 322 321 322
319 319 319 318 317 316 315 314 315 315 315 315 315 315 315 315 315 315 314 314 313 314 314 314 314 314 314 314 314 314 314 315 316 317 318 320 321 320 319 320 321 322 323 324 325 326 327 327 328 328 328 328 328 328 327 327 326 326 325 325 325 326 326 325 325 324 324 323 323 323 322 322 322 322 323 323 323 322 322 322 322 322 322 322 322
313 313 312 311 310 309 309 309 309 309 309 309 309 309 309 310 310 310 310 310 310 310 310 310 311 311 311 312 312 312 313 313 314 315 316 316 316 316 317 317 318 318 319 321 322 324 325 326 327 327 327 327 327 328 327 327 327 326 325 325 324 325 326 326 326 325 325 324 324 323 322 322 322 322 322 323 323 322 322 322 322 322 322 322 322
305 305 305 304 304 304 304 304 304 304 304 303 304 304 305 305 306 306 305 305 304 304 304 304 305 305 305 307 309 310 310 311 312 312 312 312 313 314 315 315 315 316 316 317 318 320 321 323 324 325 325 326 326 327 327 327 327 327 326 325 324 324 324 325 326 326 326 325 325 324 324 323 323 323 323 323 322 322 323 323 322 322 322 322 322
301 301 301 301 301 301 301 301 301 301 300 300 301 301 301 301 301 302 302 301 301 300 299 298 298 299 300 301 303 305 307 307 309 310 309 309 310 311 312 312 313 314 314 315 316 316 317 318 320 321 322 323 323 324 325 325 326 326 326 325 325 324 323 323 324 324 325 325 325 325 324 324 324 324 323 323 322 322 323 323 323 322 322 322 321
299 299 299 299 299 299 299 299 299 299 299 299 299 299 298 298 298 298 298 299 299 298 296 295 294 295 296 298 300 303 305 304 302 304 305 306 307 308 309 309 310 311 312 312 313 314 315 316 317 318 318 319 320 320 321 322 323 324 325 325 325 325 324 322 322 322 323 324 324 324 324 324 324 323 323 323 322 323 323 323 323 323 322 322 321
298 298 299 299 299 299 298 298 298 298 298 298 297 297 297 297 297 296 296 296 296 296 295 294 293 293 294 297 301 302 301 299 297 299 301 301 302 303 305 306 306 308 309 310 310 311 312 313 314 314 315 315 316 316 316 318 319 321 322 323 324 324 323 321 320 321 322 323 323 324 324 323 322 322 322 322 322 322 323 323 323 323 322 322 321
298 298 298 298 298 298 297 297 297 297 297 297 296 296 296 296 295 295 294 294 294 295 295 295 293 292 293 296 298 297 296 294 292 294 296 297 299 300 300 301 303 304 305 306 307 308 309 309 311 311 312 312 312 313 313 314 315 316 317 318 319 321 321 320 320 320 321 321 322 323 323 323 322 322 322 322 322 322 322 322 322 322 322 321 321
297 297 297 297 297 296 296 296 296 296 296 296 296 296 295 295 294 294 293 293 293 293 293 294 293 293 292 291 292 292 291 290 290 292 294 296 296 297 298 298 299 300 300 301 302 304 305 306 307 308 308 309 309 310 312 313 314 315 316 317 318 319 319 319 321 321 320 320 321 322 323 323 323 322 322 321 322 323 323 323 323 322 322 321 320
296 296 296 296 296 296 296 296 295 295 295 295 295 295 294 294 293 293 293 292 292 291 291 291 292 292 292 291 290 289 288 288 289 291 292 293 293 294 297 298 298 298 297 298 298 299 300 301 302 304 304 305 307 309 311 313 316 317 318 319 319 319 318 319 320 321 320 320 320 321 322 322 323 323 322 323 323 323 323 324 324 323 323 322 320
295 295 295 295 295 295 295 295 295 295 294 294 293 293 293 293 293 292 292 291 291 290 290 290 290 290 291 291 290 290 289 289 288 289 290 291 291 291 293 295 297 298 297 297 297 296 297 296 297 298 299 301 305 310 312 314 316 318 318 318 318 318 318 318 319 319 320 320 319 320 321 321 322 323 323 323 323 323 323 323 324 323 323 324 322
294 294 294 294 294 294 294 294 294 293 293 293 292 292 292 292 291 291 290 290 290 289 289 288 288 288 288 289 289 290 290 289 288 287 288 289 289 288 289 291 293 295 295 295 296 296 295 294 294 294 295 301 307 310 312 314 316 317 317 317 318 318 318 319 318 318 318 318 318 318 319 320 321 322 323 323 323 323 323 323 323 324 325 326 325
293 293 293 293 293 293 292 292 292 292 292 292 291 291 291 291 290 290 289 289 289 288 288 288 287 287 287 287 287 287 287 287 287 287 286 286 287 287 287 287 287 289 291 292 294 295 293 293 293 293 295 300 304 307 309 311 313 315 316 317 317 317 317 318 318 318 318 317 317 317 317 318 320 321 322 323 323 323 323 323 323 324 324 325 326
292 292 292 292 292 292 291 291 291 291 291 290 290 290 289 289 289 289 289 288 288 287 287 287 286 286 286 286 286 286 286 286 286 286 285 285 285 285 286 286 286 287 287 288 290 292 292 292 292 293 294 297 299 301 304 306 308 311 313 315 315 316 316 316 317 318 317 318 317 317 316 317 318 320 321 322 323 323 323 323 323 323 324 324 324
292 291 291 291 290 290 290 290 290 289 289 289 288 288 288 288 288 288 287 287 287 286 286 286 285 285 285 285 285 285 285 285 285 285 284 284 285 285 286 286 286 287 287 287 288 289 291 291 292 292 293 293 294 295 298 300 303 307 310 312 313 314 314 314 314 315 316 317 317 317 317 316 316 317 319 321 322 323 323 323 323 323 323 324 324
290 289 289 288 288 288 288 288 287 287 287 287 287 287 286 286 286 286 286 286 286 285 285 285 285 285 285 284 284 284 284 284 284 284 284 284 284 284 285 285 285 286 286 286 287 288 288 288 289 289 289 289 290 291 292 294 297 300 304 307 309 311 311 312 312 312 313 314 315 316 316 316 315 314 316 318 321 322 322 323 323 323 323 324 324
287 287 287 286 286 286 286 286 286 286 286 285 285 285 285 285 285 285 285 285 284 284 284 284 284 284 284 284 284 283 284 284 283 283 283 283 284 284 284 285 285 285 285 285 286 286 286 286 286 287 288 287 288 289 289 290 291 292 294 296 299 302 304 307 308 308 309 310 310 312 314 316 315 314 314 315 318 321 321 322 322 323 323 323 324
285 285 285 285 285 284 284 284 284 284 284 284 284 284 284 284 283 283 283 283 283 283 283 283 283 283 283 283 283 283 283 283 282 282 282 283 284 284 284 285 285 285 285 285 285 285 285 285 286 287 287 287 287 287 288 288 288 288 289 289 290 292 294 297 300 302 303 304 305 307 309 312 314 314 314 314 315 317 319 320 321 322 322 322 323
284 284 283 283 283 283 283 282 282 282 282 282 282 282 282 282 282 282 282 282 282 282 282 282 282 282 282 282 282 282 282 282 282 281 282 283 283 283 283 284 284 284 285 285 284 285 285 285 286 286 286 286 286 286 286 287 287 286 287 287 287 288 289 290 291 293 295 297 299 301 303 306 309 311 313 314 314 314 316 317 318 319 320 321 321
283 282 282 282 282 282 281 281 281 281 281 282 282 282 282 281 282 281 281 281 281 281 281 281 281 281 281 281 281 281 281 281 281 281 281 282 282 282 283 284 284 284 284 285 284 284 284 285 285 286 286 285 285 285 285 285 285 285 285 286 286 286 287 287 288 289 289 290 292 294 296 298 302 305 308 311 313 313 314 315 316 317 318 319 319
281 281 281 281 281 281 281 281 281 281 281 281 281 281 281 281 281 281 281 281 280 280 281 281 281 281 281 281 281 280 280 280 280 281 282 282 283 283 284 284 284 284 284 284 284 284 284 284 285 285 285 284 283 283 283 283 284 284 284 285 285 285 285 286 286 287 287 288 289 290 291 293 295 298 301 305 309 312 313 314 314 315 315 316 317
280 280 280 280 280 280 280 280 280 280 280 280 280 280 280 280 280 280 280 280 280 280 280 280 280 280 280 280 280 280 280 280 280 282 283 283 283 283 282 282 282 283 283 283 283 283 283 283 284 284 284 283 283 282 282 282 282 283 283 284 284 285 285 285 285 285 286 287 287 288 288 289 291 292 294 297 301 306 310 312 313 314 314 314 315
280 280 280 280 280 279 279 279 279 279 279 279 279 279 279 279 279 279 279 279 279 279 279 279 279 280 280 279 280 279 279 279 281 282 282 281 281 280 280 280 279 279 280 280 281 282 281 282 283 283 283 282 282 281 281 281 282 282 282 283 283 283 284 284 285 285 284 285 286 286 287 287 288 289 290 293 295 298 303 307 310 312 313 313 314
280 280 279 279 279 279 279 279 279 279 279 279 279 279 279 279 279 279 279 279 279 279 279 279 279 279 279 279 279 279 278 280 281 281 280 280 279 279 278 278 277 278 278 278 279 280 281 281 281 281 281 281 280 280 280 281 281 282 282 282 282 282 283 283 284 284 284 284 284 285 286 286 286 287 288 289 290 292 295 299 303 306 310 311 313
279 279 279 279 279 279 279 279 279 279 279 279 279 279 279 279 279 279 279 279 279 279 279 279 278 279 278 279 279 278 278 280 281 280 279 279 278 278 277 277 277 278 278 278 278 280 280 280 280 280 280 280 280 280 280 280 281 281 281 281 281 282 282 282 283 283 284 284 284 284 285 285 285 286 286 287 288 289 290 292 295 299 303 307 310
279 279 279 279 279 279 279 279 279 279 279 279 279 279 279 279 279 279 279 279 279 279 279 278 278 278 278 278 278 277 278 280 280 279 278 277 277 277 277 277 277 277 278 277 278 278 279 279 279 279 280 280 280 280 280 280 281 280 280 280 280 281 281 282 282 282 282 282 283 284 284 284 285 285 285 287 288 289 290 290 291 294 297 302 305
279 279 279 279 279 279 279 279 279 279 279 279 279 279 279 279 279 279 279 279 279 278 278 278 278 278 278 278 277 277 278 279 278 277 277 276 277 276 276 277 277 277 277 277 277 278 279 279 279 279 279 279 279 279 279 280 279 279 279 279 279 280 281 281 281 281 282 282 282 283 283 284 284 284 285 285 286 287 288 288 289 291 293 296 299
279 279 279 278 278 279 278 278 278 278 278 278 278 278 278 278 278 278 278 278 278 278 278 278 278 278 278 277 277 276 277 277 277 276 276 276 276 276 276 277 277 277 277 277 278 278 278 279 279 279 278 278 278 278 278 278 278 278 278 279 279 280 280 280 280 280 281 281 281 282 283 283 283 284 284 284 284 285 285 286 286 288 289 291 293
278 278 278 278 278 278 278 278 278 278 278 278 278 278 278 278 278 278 278 278 277 277 278 278 278 277 277 277 277 276 276 276 276 276 276 275 275 275 276 276 276 276 277 277 277 278 278 278 278 278 278 278 278 278 278 278 278 278 278 279 279 279 279 280 280 280 280 280 281 282 282 282 282 283 284 284 284 284 284 284 285 285 286 287 289
278 278 278 278 278 278 278 278 278 278 278 278 277 277 277 277 277 277 277 277 277 277 277 277 277 277 277 276 276 276 275 276 276 276 275 275 275 275 276 275 275 276 276 277 277 277 277 277 277 277 278 278 278 277 277 277 278 278 278 279 279 279 279 279 279 278 279 279 280 281 281 281 281 282 283 283 284 284 284 284 284 285 285 286 286
278 278 278 278 278 278 278 278 278 277 277 277 277 277 277 276 276 276 276 276 276 276 276 277 277 276 276 276 276 275 276 276 276 275 275 274 275 275 275 275 275 276 276 276 277 277 277 277 277 278 278 277 277 277 277 277 277 278 278 278 278 278 278 277 277 277 278 279 279 279 280 280 280 281 281 282 283 284 284 284 284 284 284 285 285
278 278 278 278 278 277 277 277 277 277 277 277 276 276 276 276 275 275 275 275 275 276 276 276 276 276 276 276 275 275 275 275 275 274 274 274 274 274 274 275 275 276 276 276 276 276 277 277 277 277 277 276 276 276 277 277 277 277 277 277 277 276 276 276 276 277 277 278 278 278 279 280 280 280 281 282 282 283 283 283 284 284 284 284 285
278 278 278 278 277 277 277 277 277 277 276 276 276 276 276 275 275 275 275 275 275 275 275 275 275 276 276 275 274 274 275 274 274 274 274 273 273 274 274 275 275 275 276 276 276 276 277 277 276 276 276 275 275 276 277 277 276 276 276 276 276 275 275 276 276 277 277 277 277 277 279 280 280 280 281 281 281 282 282 282 283 284 284 285 285
278 278 277 277 277 277 277 276 276 276 276 276 275 275 275 275 274 274 274 274 274 274 274 275 275 275 275 274 274 273 274 273 273 273 273 273 273 273 274 275 275 275 275 275 276 276 276 276 275 275 275 275 275 276 276 276 275 275 275 275 274 274 275 275 275 276 277 277 277 277 278 279 279 279 280 281 281 281 281 281 282 283 284 284 285
277 277 277 277 277 276 276 276 276 276 275 275 275 275 274 274 274 273 273 274 274 274 274 275 275 275 274 273 273 272 273 273 272 272 272 272 273 274 274 275 274 274 274 275 275 275 275 274 274 274 274 274 275 275 275 275 274 274 273 273 274 274 274 275 275 275 276 276 277 277 278 278 279 279 279 280 280 280 280 280 281 282 283 284 284
277 277 277 277 276 276 276 276 275 275 275 275 274 274 274 274 273 273 273 274 274 274 274 274 274 274 273 272 272 272 272 272 272 271 272 273 273 274 274 274 274 274 274 275 275 275 274 273 273 273 274 274 274 274 274 273 272 272 273 273 273 274 274 274 275 275 276 276 276 276 277 277 277 278 277 278 279 279 279 280 281 281 282 283 283
277 277 276 276 276 276 275 275 275 275 275 274 274 274 274 273 273 273 273 273 273 274 274 273 273 272 271 271 271 271 271 271 271 272 272 273 274 274 274 274 273 273 274 275 274 274 273 273 273 273 273 273 273 273 272 271 271 272 272 272 273 273 273 274 274 274 276 276 275 274 275 276 276 276 276 277 278 278 279 280 280 281 281 282 282
276 276 276 276 276 275 275 275 275 275 274 274 274 273 273 273 273 273 273 273 273 273 273 272 271 271 271 271 271 271 271 271 272 272 273 274 274 274 273 273 273 274 274 274 274 273 272 272 272 272 272 272 272 271 271 271 271 271 272 272 272 273 273 273 273 274 276 276 274 273 274 275 275 276 276 276 277 277 279 280 280 280 281 281 282
276 276 276 275 275 275 275 274 274 274 274 274 273 273 273 273 273 272 272 273 273 273 273 272 271 271 271 271 271 271 271 271 272 273 273 274 273 273 273 273 273 274 273 273 273 273 272 272 272 272 271 271 271 271 271 271 271 271 271 271 272 272 271 271 271 273 275 275 274 273 274 274 274 274 274 275 275 276 278 279 279 280 281 281 281
276 276 275 275 275 274 274 274 274 273 273 273 273 273 273 272 272 272 272 272 272 272 271 271 270 270 271 271 270 270 271 271 272 273 273 273 273 273 273 273 273 273 273 273 272 272 271 271 272 271 271 271 271 271 271 271 271 270 270 270 270 270 270 270 270 271 274 275 273 272 272 272 273 274 273 273 274 276 278 278 278 280 280 281 281
276 275 275 274 274 274 274 273 273 273 273 273 273 273 272 272 272 271 271 272 272 271 270 270 270 270 270 270 270 270 271 272 272 272 272 272 273 273 272 272 272 272 272 272 271 270 270 271 271 271 271 271 271 271 271 270 270 269 269 269 269 269 269 269 268 268 271 273 272 270 270 270 271 273 273 270 272 276 277 277 278 279 280 280 281
Wind_Speed
5 6 7 7 8 9 9 9 10 11 11 13 15 15 17 18 17 17 18 19 19 20 20 21 20 21 22 23 24 24 24 24 23 23 23 23 23 23 22 22 22 22 24 24 25 25 25 26 27 28 29 30 31 31 32 31 31 31 30 30 30 29 29 29 29 29 28 28 27 26 26 25 26 25 25 25 25 26 26 25 25 26 26 26 25
6 7 7 7 7 8 9 9 9 9 9 10 12 14 16 17 16 15 17 19 20 20 21 21 21 21 22 23 23 23 23 24 23 23 22 22 22 22 22 22 22 23 25 26 26 26 26 27 28 29 30 30 31 31 32 32 31 31 31 31 31 30 30 30 30 30 29 28 28 27 26 26 26 26 26 26 26 26 26 26 26 26 26 26 26
8 9 8 8 8 9 9 9 10 11 11 11 12 13 15 15 15 16 17 18 19 19 20 21 21 20 21 21 21 21 21 22 22 22 22 23 22 23 22 22 23 24 25 26 27 28 28 28 28 29 29 29 30 30 31 31 31 31 31 31 31 31 30 30 29 29 29 28 28 28 27 27 26 26 26 26 27 27 27 27 27 27 27 27 27
6 8 8 8 9 11 13 12 13 12 12 13 13 14 15 16 16 17 17 18 18 17 18 20 21 20 21 21 21 21 21 21 21 21 21 22 22 23 24 24 24 24 25 26 27 28 28 28 28 28 27 27 28 29 30 31 31 31 31 31 31 31 30 30 30 29 29 28 28 28 27 27 27 27 27 27 28 28 28 28 28 29 29 29 29
5 8 7 6 7 10 13 13 12 12 12 14 14 15 16 17 17 18 18 19 19 19 19 20 21 21 21 21 22 22 22 22 22 22 22 22 22 23 24 24 24 25 24 24 25 26 26 26 26 27 26 27 27 27 28 29 30 31 31 32 32 32 32 31 31 30 30 30 29 29 29 29 29 29 29 29 30 30 29 29 29 30 30 30 30
8 10 10 9 9 11 12 13 14 15 17 17 17 16 16 19 20 20 20 21 21 22 22 22 23 23 22 22 23 23 22 23 24 24 25 24 24 22 22 22 22 23 23 23 23 22 22 23 24 25 25 26 26 27 28 28 29 30 31 32 32 33 33 33 33 33 32 32 32 32 32 32 32 32 32 32 32 32 31 31 31 31 31 31 31
10 11 12 12 12 13 12 12 14 16 17 17 17 16 16 20 21 21 20 21 21 21 22 23 25 26 25 25 25 25 23 23 24 24 25 25 24 22 20 19 19 20 20 21 21 20 21 22 22 23 23 24 25 26 27 28 29 30 31 32 33 34 34 35 35 35 35 34 34 34 34 34 34 34 34 34 34 33 32 32 32 32 32 32 32
9 9 10 10 10 11 11 11 13 15 16 16 17 17 17 18 19 19 20 21 21 21 22 23 26 27 27 27 27 26 25 25 25 24 24 23 23 22 20 19 19 19 18 19 20 21 21 22 22 22 22 23 23 24 25 27 28 29 31 32 33 34 35 35 35 35 35 35 34 34 34 34 34 33 33 32 32 31 31 31 31 32 32 32 33
8 9 9 10 11 11 11 11 12 13 14 15 15 15 15 15 16 17 19 20 22 23 23 24 25 27 28 28 28 28 28 27 27 26 23 21 20 20 20 20 21 20 19 18 19 21 21 22 22 22 22 22 22 22 22 23 25 26 28 30 32 33 34 34 34 34 33 33 33 32 32 31 31 30 30 30 30 29 30 30 30 30 30 30 30
11 12 12 13 13 13 12 11 11 11 12 13 14 14 15 16 16 18 19 21 23 24 25 26 26 26 27 28 28 28 29 28 27 25 24 23 21 19 20 21 22 22 22 20 20 20 21 21 21 21 21 22 22 22 21 21 22 23 25 27 28 30 31 31 31 30 30 30 29 29 29 29 29 29 29 29 29 29 29 29 29 29 29 29 29
12 13 13 13 12 12 13 13 14 14 15 16 17 18 19 20 20 20 21 21 23 25 26 28 28 29 29 28 28 29 29 28 25 24 24 23 22 22 24 25 24 25 25 24 23 22 21 20 20 20 21 21 22 22 22 22 22 22 23 24 26 27 28 29 28 28 28 28 28 29 29 30 30 30 30 30 31 31 31 31 31 31 31 31 31
12 13 12 13 13 14 15 16 17 18 19 20 21 23 23 24 24 24 24 24 25 26 28 31 32 31 30 29 29 30 30 28 25 25 24 23 24 27 28 27 27 26 26 26 25 25 24 23 22 21 21 22 22 22 22 22 23 24 24 25 25 27 27 28 29 29 30 30 31 31 31 31 31 31 31 31 32 32 33 33 34 34 34 35 35
12 12 12 13 15 16 17 18 20 21 22 23 23 24 24 24 25 26 26 27 29 30 31 33 34 34 34 33 32 30 29 28 27 25 24 26 29 28 27 28 29 29 29 28 27 26 26 26 25 25 25 25 24 24 23 24 24 25 25 26 26 27 27 28 29 31 32 33 33 33 32 31 31 32 32 33 34 35 36 37 37 38 39 39 39
13 14 15 16 17 18 19 21 22 22 23 23 24 24 25 25 26 27 28 29 30 31 33 34 35 36 37 38 37 35 32 29 26 26 29 31 29 27 28 31 32 32 31 31 30 29 28 27 27 26 27 27 27 26 27 27 27 27 27 27 27 27 28 29 30 31 32 33 33 33 33 33 34 35 35 36 36 37 38 39 40 41 41 42 42
16 17 18 19 20 20 21 22 22 23 23 24 24 25 26 26 27 28 28 29 29 30 32 33 33 35 36 36 36 38 38 35 34 34 35 33 29 30 34 34 34 34 34 34 33 33 32 31 30 29 29 29 28 28 28 29 29 29 29 28 28 28 28 30 31 32 33 33 34 35 36 37 38 38 38 38 37 37 38 39 40 41 42 42 43
17 18 19 19 20 21 21 22 23 23 24 24 25 26 27 27 28 28 29 30 30 30 30 30 31 32 33 31 29 28 29 37 46 44 36 34 35 36 37 37 37 37 37 36 35 34 34 34 33 33 33 33 32 32 31 30 29 29 30 30 29 29 29 30 32 33 34 34 35 36 36 38 39 40 40 39 38 38 38 39 40 40 41 42 43
18 19 20 20 21 21 22 22 23 23 24 25 26 26 27 27 28 28 29 30 30 30 30 30 30 29 27 22 19 19 23 36 45 43 39 39 41 39 38 38 40 40 40 39 37 36 36 35 35 35 35 35 35 36 36 36 34 32 32 31 31 31 31 31 31 32 32 33 33 34 36 37 38 39 39 39 39 39 38 39 39 39 40 41 41
19 20 20 20 21 22 22 23 23 24 25 25 26 27 27 28 29 29 29 29 30 30 30 31 30 28 24 18 13 15 26 34 34 38 46 46 42 41 41 40 41 41 40 40 40 39 38 38 38 37 36 36 34 34 35 37 37 37 37 35 34 33 32 30 29 30 30 31 32 33 34 36 38 38 39 38 38 39 39 39 40 40 39 39 37
18 18 19 20 20 21 22 22 23 24 24 25 26 27 28 29 29 29 30 30 30 31 32 32 31 29 28 24 21 21 25 28 26 30 41 47 47 45 44 43 43 43 43 42 43 42 42 42 42 41 39 37 34 32 31 31 32 32 32 32 31 31 30 29 29 29 30 30 31 31 32 34 36 37 38 38 37 38 38 38 39 39 39 38 36
18 19 19 20 20 21 21 22 23 23 24 25 25 26 26 27 27 28 29 29 30 31 31 32 32 32 32 30 30 29 28 27 23 21 27 40 49 47 46 48 46 45 46 46 46 45 45 45 44 43 42 37 33 30 28 27 26 24 24 25 26 26 27 28 28 29 29 29 30 31 32 33 34 35 36 37 36 36 36 36 37 37 37 38 37
19 20 20 21 21 21 22 22 22 23 23 24 24 25 25 26 27 27 28 28 29 29 29 30 30 31 32 32 33 33 33 30 27 26 27 31 39 42 45 51 52 50 48 48 48 48 47 47 45 43 41 37 30 27 27 25 23 23 24 25 26 27 26 25 26 28 28 28 28 29 31 32 32 33 34 35 36 36 36 36 36 36 36 36 36
20 20 21 21 22 22 22 23 23 23 24 24 24 25 25 26 27 27 28 28 28 28 28 29 29 29 30 31 33 34 35 35 34 34 34 31 35 40 40 41 49 53 52 50 50 49 48 46 45 42 37 30 26 26 26 25 24 24 25 26 27 28 28 26 24 25 27 28 28 28 29 30 31 32 33 35 36 37 37 37 36 36 36 35 35
20 20 21 21 22 22 23 23 23 24 24 25 25 26 26 26 27 27 27 27 28 28 28 28 28 29 29 30 31 31 31 33 34 35 35 34 38 44 42 38 43 49 49 50 51 50 49 45 42 40 32 25 26 27 26 26 26 26 26 26 27 28 28 27 25 25 27 29 29 30 30 29 30 30 31 33 34 36 37 37 37 36 36 36 35
19 19 20 20 20 21 22 22 23 23 24 24 25 25 25 25 26 26 27 27 27 28 28 29 29 29 30 30 30 30 29 29 31 31 33 35 37 43 47 44 47 49 46 45 48 48 46 44 39 34 28 27 29 29 29 31 31 30 30 30 28 27 27 26 27 28 27 28 29 30 31 31 30 30 30 31 33 34 36 37 37 37 37 36 35
18 19 20 20 21 21 22 22 23 23 24 24 24 24 25 25 25 25 26 26 26 27 27 28 29 29 30 30 29 29 29 29 30 30 32 33 34 40 46 46 48 52 49 43 41 42 41 39 37 34 32 32 34 33 32 33 33 32 33 33 32 30 29 28 27 28 27 27 30 31 32 32 32 31 31 31 31 32 33 35 36 38 38 36 35
20 20 21 21 22 22 22 23 23 23 23 24 24 24 25 25 26 26 26 26 26 26 27 27 27 28 28 29 29 28 29 30 30 30 31 31 30 34 41 47 49 52 51 44 39 38 36 36 38 40 38 38 38 38 38 36 36 35 35 36 36 35 34 33 32 31 29 28 29 30 33 33 34 34 33 33 32 31 31 32 33 35 37 37 36
20 21 21 21 22 22 23 23 24 24 25 25 25 26 26 26 26 27 27 27 27 27 28 28 28 29 29 28 28 28 28 29 29 29 29 28 27 27 31 38 46 52 53 49 44 39 35 37 39 38 37 40 41 40 42 42 41 40 40 40 41 41 40 39 39 38 37 35 32 31 33 34 34 35 36 37 36 35 34 32 31 33 35 37 37
21 21 22 23 23 24 24 25 25 26 26 27 27 28 28 28 28 28 28 28 29 29 29 29 29 30 30 30 30 30 29 29 28 28 27 24 24 25 26 26 33 44 49 48 47 45 42 42 40 36 34 38 42 42 44 46 45 45 45 46 46 46 46 44 44 45 45 44 42 39 37 35 35 35 36 38 39 39 38 36 34 34 35 35 36
21 22 22 23 23 24 24 24 25 26 26 27 27 28 28 28 29 29 30 29 29 29 29 29 29 29 29 28 29 29 30 29 28 28 25 22 22 24 24 22 24 32 38 42 46 45 41 41 41 39 35 36 42 46 47 47 47 47 48 48 48 48 48 47 46 47 47 47 47 46 45 42 40 39 38 38 38 39 40 40 38 37 37 37 36
21 21 22 23 23 24 25 26 26 26 27 28 28 29 29 29 29 29 30 30 29 29 29 29 29 28 28 28 27 27 27 27 26 26 23 23 24 22 21 20 21 25 29 36 45 45 39 39 40 40 39 41 45 47 49 50 49 48 48 48 48 49 49 48 46 46 46 46 46 47 48 47 46 45 43 41 40 40 41 42 41 40 41 40 39
23 23 24 25 25 26 26 27 27 27 28 28 28 29 29 29 29 29 30 30 30 30 29 29 29 29 29 29 28 28 27 26 26 24 21 20 20 19 19 21 22 25 27 31 43 49 44 41 42 41 40 42 46 49 51 54 53 50 49 47 46 47 47 47 46 44 44 44 44 45 46 47 48 47 46 45 44 42 42 42 42 42 44 45 43
23 24 25 25 25 25 25 25 25 25 26 26 27 27 27 28 28 28 28 28 29 28 28 27 27 27 27 27 27 26 26 27 25 21 17 17 19 21 24 26 27 30 33 34 40 48 49 44 42 43 42 41 45 52 56 57 55 51 48 47 45 44 45 46 45 43 41 41 42 43 44 45 46 47 46 46 46 46 44 43 42 41 43 47 47
24 24 24 24 25 25 25 25 26 26 27 27 28 28 29 29 29 29 29 29 29 29 28 28 27 27 27 27 26 25 25 25 21 17 17 20 25 28 30 32 33 33 35 37 38 44 50 47 42 44 47 46 47 52 55 54 53 50 48 46 45 44 44 43 43 42 41 40 40 42 43 44 44 45 46 46 46 46 45 45 44 42 41 43 46
23 24 24 24 25 26 27 28 28 28 29 29 30 31 31 32 32 32 32 32 32 32 31 31 30 29 29 29 27 26 26 22 17 18 23 27 31 34 34 35 37 35 34 35 35 38 44 46 45 49 52 51 50 49 49 47 46 46 46 46 46 46 44 43 43 42 41 40 40 40 41 42 43 44 45 46 46 45 45 45 45 45 43 42 43
22 23 25 26 27 28 28 29 29 29 30 30 31 31 32 33 33 33 33 33 33 33 32 32 32 31 31 31 30 28 25 20 19 23 29 33 35 36 37 36 36 35 33 31 30 32 37 43 48 52 53 53 51 47 43 42 40 40 45 48 47 45 44 43 42 42 41 41 41 41 41 41 42 43 43 42 42 41 41 42 43 45 46 45 44
22 24 25 26 27 27 28 28 29 29 30 30 30 31 31 32 32 33 33 32 32 32 31 31 31 31 31 31 31 29 23 19 23 29 33 36 37 37 37 36 33 32 32 31 30 30 34 41 47 49 49 50 50 46 41 40 40 41 45 47 45 42 41 40 40 42 43 42 42 42 41 40 40 40 39 36 34 34 36 38 41 43 45 47 47
24 24 25 26 26 27 27 28 29 29 29 30 30 30 31 31 31 32 31 31 31 31 31 31 31 31 31 31 30 27 22 22 27 32 35 37 39 38 34 30 28 28 29 30 30 30 31 36 40 42 44 45 47 46 41 39 42 45 45 43 40 38 37 39 41 44 44 43 43 42 41 40 38 37 37 36 35 35 37 38 39 40 42 44 46
24 25 25 26 27 27 28 28 29 29 29 30 30 30 31 31 31 31 31 31 30 30 31 31 30 30 30 30 30 26 23 26 30 32 33 36 38 34 27 25 26 26 27 27 28 29 30 32 35 37 40 43 45 47 45 41 41 44 42 39 36 36 38 41 43 44 45 46 45 43 42 40 39 38 37 39 40 40 41 40 40 40 41 41 43
25 25 26 26 27 28 28 28 28 29 29 29 29 30 30 31 31 31 31 31 31 31 31 31 31 30 30 29 29 27 26 27 28 30 32 35 35 29 23 25 27 26 26 27 27 29 30 31 33 34 36 39 41 44 45 42 38 36 36 37 38 39 40 39 40 44 47 47 45 43 41 40 41 42 41 40 40 41 42 42 42 41 40 40 41
25 26 27 27 28 27 28 28 28 28 28 28 29 29 30 31 31 31 31 31 31 31 31 31 31 30 30 29 28 28 27 25 25 27 30 32 31 26 24 26 26 26 27 28 28 29 29 30 32 33 34 36 37 39 41 40 36 34 35 37 38 39 40 40 42 46 47 43 42 43 44 46 47 48 46 43 41 40 41 42 42 42 40 39 39
25 26 26 27 28 28 28 28 27 27 28 28 28 29 29 30 30 30 30 30 31 31 32 32 32 31 31 30 30 28 23 22 25 28 31 31 27 24 26 27 26 26 28 29 29 30 30 31 32 33 33 34 35 36 38 38 36 35 35 35 37 42 46 47 46 44 42 39 40 44 48 50 51 51 50 48 45 42 42 42 42 42 41 40 38
25 26 26 27 28 29 28 28 28 27 27 28 28 28 28 28 29 30 30 30 31 32 32 33 33 33 32 31 30 27 22 24 30 33 34 33 26 22 24 26 25 27 29 30 30 29 30 31 32 32 33 35 36 37 37 36 35 36 37 40 47 51 50 47 47 46 43 39 40 47 51 50 50 50 50 49 47 45 43 42 41 40 40 39 38
25 25 26 27 27 28 28 28 28 27 27 28 28 28 28 28 28 29 30 31 32 32 33 34 34 34 34 32 28 24 23 28 33 35 35 31 25 23 24 24 25 27 28 29 30 30 30 31 32 33 34 36 37 35 35 35 37 41 46 51 55 51 44 41 44 48 49 43 42 49 53 50 48 46 46 47 45 42 40 41 40 38 37 37 36
25 25 26 27 27 27 28 28 28 28 28 29 29 29 29 28 28 29 30 31 32 33 34 35 36 35 34 32 28 23 24 27 30 34 34 29 25 25 25 25 26 27 26 28 29 29 29 31 33 34 33 34 35 35 35 38 43 49 53 53 49 42 38 38 39 45 51 48 42 45 51 52 46 41 43 45 42 39 40 41 40 38 36 35 36
26 26 26 27 27 28 29 30 30 29 29 29 29 29 29 29 29 29 30 32 33 34 34 35 36 35 33 32 29 25 24 24 26 31 31 28 25 26 26 27 28 28 28 28 27 27 28 29 31 33 33 33 34 37 40 43 48 51 50 47 43 37 37 38 39 42 47 46 41 41 47 50 42 35 40 46 45 43 42 43 43 41 39 37 37
27 27 27 28 28 29 30 31 32 31 30 30 30 30 30 30 30 30 31 33 33 33 34 34 34 34 33 30 27 26 26 25 25 27 27 26 26 28 29 29 31 32 32 29 28 30 31 30 30 33 34 33 34 39 44 47 48 45 41 41 42 40 38 38 38 41 46 47 41 37 43 49 44 37 40 46 48 46 43 44 45 43 40 40 40
28 28 29 30 30 31 32 32 33 32 31 31 31 30 30 30 30 30 31 32 32 33 33 33 32 31 29 26 25 28 31 28 25 25 25 25 27 29 31 33 34 36 33 29 30 33 35 34 33 32 31 31 34 41 48 50 46 41 39 41 40 36 36 38 42 46 49 47 38 30 37 48 46 38 39 43 45 47 47 46 45 43 41 41 41
28 29 30 31 31 32 32 32 32 32 31 30 30 29 29 28 29 30 31 31 32 33 33 32 30 27 24 21 23 27 29 27 25 24 24 26 28 31 34 37 37 35 33 32 35 38 38 35 32 31 33 38 43 48 51 48 44 41 40 38 34 33 36 42 47 48 48 47 40 29 31 41 41 35 37 41 43 47 50 47 44 43 41 39 39
28 29 30 31 31 31 31 31 31 31 30 29 29 28 28 28 28 29 30 31 32 32 33 31 27 24 21 20 22 26 27 26 25 25 25 27 30 34 37 37 34 34 35 38 42 43 41 39 39 41 44 48 51 52 50 46 42 37 32 31 33 34 36 39 42 44 48 49 39 26 25 37 40 36 40 47 48 48 49 47 44 41 40 38 38
29 29 30 31 30 30 30 30 30 31 30 29 28 27 27 26 27 28 29 31 31 32 32 29 26 23 23 22 23 25 26 25 25 26 27 29 32 34 35 34 34 36 40 43 46 47 46 47 48 49 50 51 51 51 49 47 41 32 26 27 30 31 31 33 36 42 48 45 32 25 31 40 42 42 45 50 51 50 47 45 44 41 39 37 36
29 29 30 30 30 29 29 29 29 30 30 29 27 27 26 26 26 26 27 29 30 31 30 29 26 24 24 26 26 24 23 24 26 28 29 30 31 32 32 34 37 41 44 46 46 48 51 53 54 53 52 51 51 51 50 47 41 34 28 24 23 23 28 34 36 37 42 44 36 31 34 40 44 48 46 42 44 50 48 45 44 43 40 38 37
Wind_Direction
18 358 340 336 335 332 333 333 329 329 328 327 327 332 335 337 343 346 347 346 343 339 332 328 327 325 324 322 322 322 321 319 316 311 306 302 300 300 300 298 294 289 285 285 286 285 286 287 288 288 288 288 289 289 289 288 286 284 282 280 279 278 277 277 278 278 277 276 276 276 276 276 276 275 273 272 272 272 272 271 272 273 273 272 270
334 318 311 314 318 319 322 326 326 324 324 322 321 324 326 331 340 342 341 340 340 340 335 331 330 330 328 326 326 326 324 322 319 316 312 310 308 306 305 302 298 293 290 290 290 289 288 289 289 289 288 287 287 288 288 287 287 286 284 283 281 280 279 279 279 281 281 281 281 280 278 276 274 274 273 272 271 271 270 270 270 271 273 273 271
313 311 312 317 324 322 320 323 324 321 322 322 323 324 321 324 330 331 332 331 330 334 334 331 331 332 329 328 328 326 325 325 324 322 318 315 313 309 306 304 302 299 297 296 295 295 294 294 293 291 289 288 288 287 287 287 286 285 285 284 283 283 282 280 279 280 281 281 281 280 279 277 275 273 273 272 271 271 269 268 269 269 270 270 271
310 321 318 313 319 322 326 329 325 322 325 325 324 323 321 323 324 324 324 320 320 326 328 326 326 327 326 326 327 327 330 332 332 330 325 321 318 314 311 309 307 305 304 303 301 301 300 299 298 295 292 290 288 287 287 287 286 285 284 283 283 282 281 281 280 280 280 280 280 280 280 279 278 276 274 274 273 272 271 269 268 267 266 266 268
354 355 348 338 333 331 332 333 335 335 336 332 328 325 322 323 322 319 317 314 317 322 322 320 319 321 324 325 326 329 332 334 336 335 331 328 324 321 319 316 313 310 309 308 306 305 305 305 303 300 297 293 289 287 286 285 285 285 284 283 283 282 281 280 280 280 279 280 280 280 280 279 279 279 277 276 276 275 274 272 270 268 266 265 266
332 334 337 339 335 333 326 323 331 336 335 331 327 324 319 318 318 317 315 315 317 320 320 320 320 322 325 325 325 328 330 333 336 336 336 335 332 329 325 323 319 317 316 314 313 312 312 311 311 309 304 298 293 289 286 284 283 283 283 283 282 282 281 281 281 281 280 280 280 280 280 280 279 279 279 278 277 275 275 273 272 271 269 267 266
315 310 312 313 312 318 322 323 328 329 327 324 322 322 321 318 319 319 319 319 318 319 322 322 322 325 326 326 327 329 329 332 334 335 336 336 335 333 329 328 327 326 325 324 324 323 320 318 318 318 315 310 302 297 292 287 284 282 281 281 281 281 281 281 281 281 281 281 281 280 280 280 280 280 280 280 279 277 276 274 273 271 270 269 267
328 322 324 327 327 329 331 331 330 327 326 324 324 327 328 325 325 327 327 327 326 326 330 328 325 327 327 327 330 331 331 331 331 333 334 333 333 333 329 328 329 330 332 332 332 328 326 324 323 323 324 324 318 310 303 297 292 287 284 281 280 280 280 281 281 281 281 281 281 280 281 281 282 283 283 283 282 281 279 278 277 275 274 272 270
1 3 3 4 0 352 346 343 340 338 338 339 340 340 338 334 332 333 332 330 328 327 328 327 326 325 324 326 328 329 329 328 329 332 332 330 331 333 334 334 334 335 335 335 335 331 329 329 327 326 327 329 328 324 317 310 304 298 293 288 284 282 281 280 280 280 280 280 281 281 282 283 284 284 284 284 283 283 282 281 280 279 279 278 277
23 21 18 15 7 0 358 357 354 351 350 349 349 348 346 344 342 340 336 333 330 328 327 325 324 322 322 324 324 324 324 325 328 327 327 328 329 334 337 338 339 338 336 333 331 329 329 331 329 327 327 327 326 326 324 320 315 311 306 301 296 291 287 284 281 280 280 281 282 283 284 284 285 285 284 284 283 282 281 281 280 278 278 278 278
18 14 9 5 359 357 358 357 356 355 353 350 348 348 349 348 345 342 340 338 334 330 328 325 323 323 323 322 321 321 323 325 326 321 322 325 325 327 329 331 333 334 333 331 328 325 324 325 326 324 322 321 320 320 321 319 317 313 311 309 306 302 298 293 288 285 284 283 283 283 283 283 283 283 283 282 281 281 280 279 278 277 276 276 275
11 7 2 358 355 358 358 356 356 354 352 350 349 348 346 344 341 339 336 334 332 330 328 327 324 321 319 319 322 324 325 326 323 319 322 322 321 321 322 323 326 328 328 327 326 324 320 317 316 315 313 312 312 313 314 313 313 312 309 307 305 304 301 298 294 292 290 289 287 284 282 281 280 279 280 280 280 280 279 278 277 276 276 276 276
12 9 6 4 3 2 359 358 357 355 353 352 350 348 344 341 338 337 335 333 333 332 331 329 326 324 323 322 323 324 325 326 322 322 323 320 320 322 320 320 322 323 322 321 322 322 321 318 315 313 311 309 309 307 305 304 306 307 306 304 301 299 298 296 294 293 292 291 289 286 282 279 278 277 277 277 278 277 277 277 276 276 275 275 276
17 13 10 8 5 2 359 358 356 354 353 350 347 344 341 339 336 336 337 337 337 337 337 336 335 335 333 329 327 324 323 323 319 320 322 321 323 323 320 320 320 318 317 316 317 317 317 317 317 317 315 314 313 310 306 302 302 302 301 300 299 296 294 291 290 289 289 289 288 285 283 280 279 278 278 277 276 276 276 276 276 275 275 276 276
14 10 7 4 1 359 357 355 353 350 349 346 343 341 340 339 338 337 336 336 337 339 341 343 342 339 336 335 334 330 326 323 319 320 322 322 322 320 318 319 318 315 314 314 315 314 312 311 311 313 313 314 315 315 312 309 306 302 299 297 297 296 293 289 287 285 285 285 285 284 283 281 280 280 279 278 276 276 275 276 275 275 276 276 276
11 8 5 2 359 357 355 353 350 348 345 343 342 342 341 340 339 339 337 335 335 338 341 344 345 344 345 344 339 336 331 325 323 322 321 319 316 316 316 316 314 312 313 315 314 312 310 309 308 308 307 308 310 312 312 312 310 308 304 300 298 296 296 294 290 287 285 284 283 283 282 281 280 280 279 278 276 275 276 276 276 276 276 276 275
6 3 1 358 356 353 351 349 346 345 343 342 342 342 342 341 341 341 340 338 337 337 337 339 345 348 354 355 347 339 326 322 323 319 315 315 313 313 313 312 311 311 312 312 311 311 310 310 307 307 307 307 307 308 309 309 309 310 310 307 304 300 298 298 295 292 290 288 287 285 284 282 280 279 279 278 277 276 276 277 277 277 278 277 276
360 358 356 353 351 349 347 345 344 343 342 342 341 340 341 341 342 341 341 340 338 336 333 335 341 342 347 354 347 327 318 323 326 318 313 312 310 311 311 310 308 307 308 308 307 308 309 308 307 307 308 309 310 309 308 309 309 309 309 310 309 307 302 299 297 295 293 291 290 289 287 285 283 280 278 278 278 278 278 278 279 278 278 278 277
355 354 352 350 349 347 345 343 342 342 341 341 340 340 342 341 341 341 341 340 339 338 336 335 335 334 336 339 331 323 323 328 329 322 318 314 311 311 310 308 308 307 307 307 306 306 305 305 306 308 310 312 314 313 311 311 310 310 309 310 311 309 303 299 296 294 291 290 289 289 288 287 285 283 281 280 280 280 280 281 281 281 280 279 277
354 352 351 349 347 345 344 343 341 340 339 340 340 340 340 339 339 338 338 339 338 339 339 335 333 330 331 331 329 329 331 333 331 325 320 314 314 315 310 306 306 307 308 307 307 308 307 306 308 310 312 316 319 317 312 309 308 306 305 305 303 300 297 295 291 288 289 291 290 289 289 287 286 284 282 282 281 280 279 279 280 280 279 279 280
354 353 350 348 346 345 344 342 340 340 339 340 340 339 338 338 338 337 337 338 338 338 338 336 334 332 329 326 326 326 326 329 331 327 324 318 316 318 316 311 307 305 307 308 308 308 309 310 311 312 314 319 321 313 305 303 300 296 293 290 289 288 290 291 289 288 289 291 290 289 288 288 287 285 283 281 281 280 279 277 277 278 276 276 280
353 352 350 348 347 346 344 343 342 342 341 340 340 339 339 339 339 339 338 338 337 338 338 337 336 334 332 329 326 325 324 326 328 327 327 323 316 316 320 318 312 308 308 308 306 307 309 311 312 314 318 321 313 302 297 295 294 290 286 284 284 285 285 287 288 288 286 286 286 286 286 287 288 287 284 282 280 278 278 277 275 275 274 272 275
352 350 348 348 347 346 345 345 344 343 342 341 341 340 340 340 339 338 338 338 337 337 337 336 337 335 334 333 332 331 330 328 327 326 326 325 320 317 319 320 315 311 313 311 307 307 309 310 312 314 317 313 299 293 290 287 286 285 283 282 282 283 283 284 285 284 282 281 282 282 281 283 286 286 285 284 282 279 277 276 275 273 272 271 271
350 348 347 347 347 346 345 344 343 343 343 342 342 341 341 340 339 338 338 339 338 338 337 337 338 337 336 336 335 334 333 330 328 327 326 325 323 318 317 320 317 313 316 317 313 309 308 311 314 314 311 302 294 292 288 283 281 281 281 280 281 282 281 281 281 280 279 276 276 278 278 279 283 286 286 284 283 281 278 276 275 272 271 269 268
350 350 350 350 349 348 347 346 345 345 344 344 343 342 342 341 341 339 339 340 340 340 339 339 339 338 337 337 338 337 335 334 331 329 329 327 325 320 318 320 319 315 316 320 319 314 311 310 308 307 306 302 297 295 291 286 282 280 280 280 280 281 281 280 279 277 277 275 273 274 276 278 281 284 287 285 284 283 280 278 276 273 270 268 266
354 354 354 354 352 351 351 349 348 347 346 345 345 344 344 344 343 342 342 342 342 341 340 340 339 338 337 337 338 338 336 336 334 332 333 331 328 326 323 321 319 316 315 318 319 316 315 312 307 305 306 303 298 295 292 290 288 285 284 283 281 281 282 282 282 281 280 280 277 274 274 276 276 278 280 282 283 281 278 278 279 275 271 269 268
358 357 356 355 354 353 352 351 349 348 347 346 346 346 345 345 345 344 344 343 343 343 342 342 341 339 339 339 337 337 337 337 335 333 335 333 327 328 328 324 321 318 317 318 317 316 316 317 314 312 309 302 299 299 297 296 295 294 292 290 287 285 284 283 283 284 285 285 284 279 276 275 275 275 274 275 277 277 277 278 279 277 273 272 271
359 358 357 356 355 354 353 352 350 349 349 347 347 347 346 346 346 345 345 345 345 345 344 343 343 341 341 341 339 338 338 338 336 335 336 332 327 327 327 325 321 318 318 319 316 314 316 320 320 318 312 303 300 302 301 300 302 303 301 299 296 292 289 287 285 285 285 287 287 286 282 279 276 275 273 272 272 273 275 277 277 275 274 273 273
358 358 357 356 355 354 353 353 352 350 350 349 348 348 347 347 347 347 346 347 347 347 347 346 346 345 344 343 340 339 339 337 336 337 336 328 326 328 325 321 318 314 315 316 313 313 317 321 320 317 313 309 305 306 306 305 307 310 308 305 304 300 296 294 292 289 287 287 287 287 286 283 279 276 274 272 271 270 271 274 275 274 273 273 273
358 358 357 356 355 354 353 352 352 350 348 347 345 345 344 344 344 345 344 344 344 346 346 345 345 345 344 343 342 341 340 337 335 336 334 328 328 330 325 320 317 312 310 310 308 309 315 317 316 312 310 312 313 311 310 311 312 313 312 310 309 307 304 301 298 295 293 290 288 287 286 285 282 279 276 274 272 270 268 270 272 273 273 273 272
358 357 355 355 354 352 352 350 349 348 346 344 343 342 342 342 342 342 342 341 342 342 343 343 343 342 341 341 341 342 339 337 338 337 334 332 330 326 320 315 311 307 307 307 303 304 309 313 313 310 309 311 313 313 314 317 317 317 315 313 311 310 309 306 304 302 299 296 293 289 286 284 283 282 280 277 273 270 268 267 267 268 270 272 272
357 355 354 352 351 350 349 348 346 346 345 343 342 341 341 341 341 341 340 340 340 340 341 341 341 340 339 339 338 338 336 335 338 337 332 327 318 310 306 303 300 300 301 303 301 300 303 308 308 307 308 310 312 313 315 318 319 320 319 316 315 314 310 309 309 309 305 300 297 293 290 287 285 284 282 280 276 272 270 268 267 265 265 266 269
352 351 350 348 348 348 347 347 347 346 345 344 342 341 341 341 341 340 340 340 340 340 341 341 342 340 338 338 337 336 336 335 334 328 318 313 308 305 305 304 304 303 301 301 300 298 301 305 305 304 305 308 310 312 315 318 320 321 320 320 321 319 315 311 310 310 310 307 301 297 295 294 291 287 284 282 280 277 274 271 269 267 264 262 263
347 347 347 348 348 348 348 348 348 346 345 344 342 341 340 340 340 340 339 339 339 340 341 341 341 340 337 337 336 336 338 334 323 313 309 308 308 309 311 311 311 309 307 304 302 300 302 304 305 305 307 309 310 313 317 319 320 321 320 321 323 321 319 316 312 309 309 309 307 303 300 299 297 294 290 286 284 283 280 277 274 271 268 265 262
347 347 348 348 348 347 346 346 345 345 344 342 341 340 339 338 337 337 337 337 337 338 338 338 338 337 335 334 334 336 339 329 311 306 306 306 309 312 314 315 314 313 313 311 305 301 302 304 305 307 310 312 313 316 320 320 319 318 316 318 322 321 319 319 316 313 311 311 310 307 304 302 301 299 298 296 293 290 286 283 279 275 271 268 265
348 348 346 345 344 343 343 343 343 343 342 340 339 338 337 336 335 334 334 334 334 335 335 335 334 334 333 333 333 336 335 319 305 304 306 309 312 316 318 318 318 317 315 313 309 305 304 306 308 311 313 314 315 318 321 319 317 314 313 317 322 322 320 319 317 315 314 313 312 310 308 307 304 303 302 302 299 293 287 283 279 277 273 270 267
345 345 343 341 341 341 341 342 342 341 340 338 337 336 335 334 332 332 332 331 332 332 331 331 331 331 331 331 331 332 325 310 304 307 311 313 315 319 321 320 318 315 312 312 312 309 306 306 308 310 311 312 313 314 317 318 316 315 317 321 325 324 320 317 316 315 314 314 316 315 313 310 308 306 303 300 298 294 291 287 283 280 278 275 271
341 340 340 340 340 340 341 341 340 339 338 336 334 333 332 331 330 329 329 329 330 329 329 329 328 329 330 329 328 327 318 308 308 311 311 312 317 322 322 317 314 312 310 310 310 308 306 304 305 307 308 311 312 313 316 319 319 319 321 324 324 321 317 317 320 319 316 316 318 317 316 315 312 308 304 301 300 300 299 298 294 288 282 279 276
338 338 339 339 339 339 339 338 337 336 335 333 331 331 329 329 328 328 328 328 328 328 328 328 328 328 328 327 325 321 316 310 308 309 308 312 320 324 316 312 314 312 310 310 309 308 307 306 306 307 308 311 313 314 317 321 321 321 323 323 321 320 320 322 322 318 316 319 319 318 318 317 314 311 307 304 303 303 304 304 302 299 293 287 282
337 338 338 337 337 337 336 335 334 333 332 331 330 330 329 329 329 328 328 327 327 327 326 325 326 327 326 324 321 319 318 313 307 308 312 317 321 316 310 312 314 312 310 310 310 310 309 308 308 308 309 311 313 315 318 320 321 321 322 321 319 320 321 320 317 315 317 321 321 317 315 315 314 313 311 308 305 304 307 307 307 306 305 300 293
336 336 336 335 334 333 332 332 332 332 332 331 331 332 331 331 329 327 326 326 325 325 324 324 325 326 325 323 322 322 318 306 303 307 313 316 315 308 308 311 311 311 310 310 310 310 310 310 309 310 311 312 313 315 317 318 318 319 320 321 320 319 317 315 313 314 315 316 314 312 311 312 313 312 312 312 309 309 310 310 309 309 309 308 304
334 333 332 332 331 330 330 330 331 332 332 331 331 332 331 329 327 325 324 323 323 323 322 322 324 325 325 324 325 324 313 302 304 307 311 314 314 307 306 308 308 309 309 309 309 310 310 310 310 312 313 311 312 314 314 314 316 319 321 320 317 315 315 313 313 314 314 313 312 311 311 311 313 313 313 312 311 313 314 313 311 309 310 310 308
329 329 329 329 329 328 329 329 331 332 332 331 330 329 329 327 325 323 322 321 321 322 321 321 323 324 323 324 326 320 308 305 306 307 313 318 317 311 308 305 305 307 307 307 308 308 310 311 312 312 312 310 311 312 312 314 316 317 316 315 313 313 314 312 311 312 314 315 314 313 312 313 316 318 315 313 314 317 317 315 312 309 308 309 309
326 327 327 327 327 327 327 328 329 330 331 330 329 328 327 326 325 323 321 320 321 321 321 320 321 322 321 321 321 314 308 307 307 311 319 325 321 313 308 304 304 306 306 305 306 306 309 311 310 310 309 309 310 310 312 315 315 312 311 311 313 313 312 309 305 306 312 316 316 314 311 313 318 321 317 314 313 314 315 314 311 307 306 308 308
325 326 326 327 328 328 327 327 328 329 330 329 327 328 327 327 328 325 321 320 320 319 319 318 318 318 319 320 319 314 312 310 309 314 322 326 321 313 308 306 305 306 308 307 303 300 304 309 308 307 308 309 308 305 305 307 309 310 311 312 312 311 308 306 303 303 308 312 313 311 307 308 313 315 311 308 307 308 309 308 306 305 304 305 307
325 326 327 327 328 327 327 327 327 329 330 330 329 330 330 330 328 323 319 318 318 317 317 317 317 318 320 321 317 313 314 313 311 315 319 320 318 314 310 306 305 310 312 307 297 298 305 308 306 306 306 305 303 300 300 304 309 311 312 310 308 307 306 305 301 300 304 306 309 308 304 305 309 309 308 310 310 309 308 305 306 305 303 302 304
326 327 327 327 327 327 326 326 326 328 330 331 330 330 330 328 324 320 318 317 317 317 317 317 318 319 320 318 312 312 317 318 314 313 314 313 313 311 308 305 309 312 308 297 295 303 309 310 307 306 305 303 302 302 305 310 312 311 309 308 308 306 304 302 300 303 306 308 312 311 303 305 311 312 311 313 312 310 309 308 308 308 305 303 302
325 325 325 326 325 325 326 326 325 327 329 329 328 327 326 325 322 319 319 319 318 318 318 319 320 319 316 309 307 312 316 314 311 311 311 311 310 309 307 308 311 308 299 295 301 307 310 308 305 303 303 304 305 307 309 312 312 312 313 312 308 305 302 301 304 308 310 311 317 319 307 306 314 316 311 311 310 309 310 311 311 310 308 305 302
323 323 323 323 324 324 324 325 325 325 326 327 326 326 326 325 323 322 321 320 320 319 319 321 320 316 310 304 305 309 310 310 311 312 312 311 310 308 308 309 306 300 298 301 305 307 308 306 304 304 306 307 307 308 310 311 314 317 315 307 304 305 304 305 308 311 310 312 320 328 315 311 316 315 310 311 312 311 311 313 313 311 308 306 303
321 322 321 321 322 322 322 324 324 323 323 325 326 326 327 327 325 323 321 321 320 320 320 320 317 312 307 305 306 307 308 309 310 310 312 313 310 308 307 304 300 299 301 305 307 307 307 306 306 307 307 307 308 309 311 313 318 320 313 304 306 308 307 307 310 311 311 312 318 326 320 317 318 315 312 314 315 313 313 315 315 312 309 307 305
319 320 320 319 320 321 322 322 322 321 321 324 326 327 328 328 326 323 321 320 320 319 319 317 314 310 307 307 308 308 307 308 308 310 313 312 308 307 305 302 301 302 305 308 309 307 306 306 308 308 308 308 310 311 312 315 319 322 318 308 304 303 303 306 311 314 311 309 314 325 324 318 316 314 315 318 316 315 317 318 315 312 310 309 306